Location: Rodson Ranch
(38.7188°N, 119.3202°W)
Time: 17:23:11
(UTC+00:00)

Meteor PRIRODA - Pass Details

Date: 29 October 2020
Orbit: 491 x 509 km, 97.6° (Epoch: 22 November)

Event Time Altitude Azimuth Distance (km) Brightness Sun altitude
Rises 13:11:21 0° 12° (NNE) 2,585 7.3 -14.2°
Reaches altitude 10° 13:13:25 10° 13° (NNE) 1,701 6.4 -13.8°
Maximum altitude 13:17:05 85° 104° (ESE) 505 3.6 -13.1°
Drops below altitude 10° 13:20:45 10° 191° (SSW) 1,698 6.3 -12.4°
Sets 13:22:49 0° 192° (SSW) 2,580 7.2 -12.0°
